This demonstration page uses our WeatherBlox Daily Observations layout. Learn more.

Left ArrowRight Arrow

44.8408, -93.29828

Hourly Observations for March 31, 2017

Temp ( °F °C ) Dew Point ( °F °C ) Humidity (%) Winds ( mph kmh ) Pressure ( in mb ) Visibility ( mi km ) Precip ( " mm )
12:53 am 00:53 Cloudy 43 6.1 30 -1.1 60 60 NNE 12 19 29.89 1012 10 16 0.00 0.00
1:53 am 01:53 Cloudy 42 5.6 29 -1.7 60 60 NNE 9 15 29.90 1013 10 16 0.00 0.00
2:53 am 02:53 Mostly Clear 38 3.3 28 -2.2 68 68 NNE 8 13 29.91 1013 10 16 0.00 0.00
3:53 am 03:53 Clear 35 1.7 27 -2.8 72 72 N 6 9 29.92 1013 10 16 0.00 0.00
4:53 am 04:53 Clear 33 0.6 27 -2.8 78 78 NNE 9 15 29.93 1014 10 16 0.00 0.00
5:53 am 05:53 Mostly Clear 32 0 27 -2.8 82 82 N 7 11 29.96 1014 10 16 0.00 0.00
6:53 am 06:53 Mostly Clear 32 0 27 -2.8 82 82 N 6 9 29.98 1015 10 16 0.00 0.00
7:11 am 07:11 Mostly Cloudy 32 0 28 -2.2 85 85 N 7 11 30.00 1016 10 16 0.00 0.00
7:53 am 07:53 Cloudy 33 0.6 29 -1.7 85 85 N 10 17 30.01 1016 10 16 0.00 0.00
8:26 am 08:26 Cloudy 34 1.1 29 -1.7 82 82 NNE 10 17 30.03 1017 10 16 0.00 0.00
8:34 am 08:34 Cloudy 34 1 28 -2 81 81 NNE 13 20 30.03 1017 10 16 0.00 0.00
8:53 am 08:53 Cloudy 35 1.7 30 -1.1 82 82 NNE 9 15 30.03 1017 10 16 0.00 0.00
9:53 am 09:53 Mostly Cloudy 39 3.9 31 -0.6 73 73 NNE 14 22 30.04 1017 10 16 0.00 0.00
10:20 am 10:20 Mostly Cloudy 39 4 30 -1 70 70 NNE 13 20 30.06 1018 10 16 0.00 0.00
10:37 am 10:37 Mostly Cloudy 41 5 30 -1.1 65 65 NNE 13 20 30.03 1017 10 16 0.00 0.00
10:53 am 10:53 Mostly Cloudy 41 5 31 -0.6 67 67 N 8 13 30.06 1018 10 16 0.00 0.00
11:53 am 11:53 Mostly Cloudy 43 6.1 31 -0.6 63 63 NNE 10 17 30.06 1018 10 16 0.00 0.00
12:14 pm 12:14 Mostly Cloudy 46 8 32 0 57 57 NNE 10 17 30.03 1017 10 16 0.00 0.00
12:53 pm 12:53 Mostly Cloudy 48 8.9 32 0 54 54 NNE 9 15 30.05 1018 10 16 0.00 0.00
1:53 pm 13:53 Mostly Cloudy 52 11.1 31 -0.6 45 45 NE 13 20 30.04 1017 10 16 0.00 0.00
2:53 pm 14:53 Mostly Cloudy 55 12.8 28 -2.2 35 35 ENE 12 19 30.04 1017 10 16 0.00 0.00
3:53 pm 15:53 Mostly Cloudy 55 12.8 29 -1.7 37 37 N 10 17 30.04 1017 10 16 0.00 0.00
4:53 pm 16:53 Partly Cloudy 57 13.9 28 -2.2 33 33 N 7 11 30.04 1017 10 16 0.00 0.00
5:53 pm 17:53 Partly Cloudy 57 13.9 26 -3.3 30 30 VRB 7 11 30.04 1017 10 16 0.00 0.00
6:53 pm 18:53 Partly Cloudy 55 12.8 26 -3.3 33 33 NE 8 13 30.04 1017 10 16 0.00 0.00
7:53 pm 19:53 Partly Cloudy 53 11.7 25 -3.9 34 34 Calm 30.07 1018 10 16 0.00 0.00
8:53 pm 20:53 Partly Cloudy 53 11.7 24 -4.4 32 32 NNE 5 7 30.09 1019 10 16 0.00 0.00
9:53 pm 21:53 Mostly Cloudy 51 10.6 26 -3.3 38 38 N 5 7 30.11 1020 10 16 0.00 0.00
10:53 pm 22:53 Cloudy 51 10.6 25 -3.9 36 36 VRB 3 6 30.14 1021 10 16 0.00 0.00
11:53 pm 23:53 Partly Cloudy 49 9.4 24 -4.4 38 38 NE 3 6 30.14 1021 10 16 0.00 0.00

Powered by AerisWeather